Regional Weather Roundup
Issued by NWS

Home | Current Version | Previous Version | Graphics & Text | Print | Product List | Glossary On
Versions: 1 2 3 4 5 6 7 8 9 10 11 12 13 14 15 16 17 18 19 20 21 22 23 24 25 26 27 28 29 30 31 32 33 34 35 36 37 38 39 40 41 42 43 44 45 46 47 48 49 50
000
ASUS43 KDTX 012310
RWRMI
MICHIGAN HOURLY REGIONAL WEATHER ROUNDUP
NATIONAL WEATHER SERVICE DETROIT/PONTIAC MI
700 PM EDT FRI AUG 01 2014

NOTE: "FAIR" INDICATES FEW OR NO CLOUDS BELOW 12,000 FEET WITH NO
SIGNIFICANT WEATHER AND/OR OBSTRUCTION TO VISIBILITY.

MIZ047>049-052>055-059>063-066>070-074>076-081>083-020000-
SOUTHEAST LOWER MICHIGAN

CITY           SKY/WX    TMP DP  RH WIND       PRES   REMARKS
ADRIAN         PTSUNNY   76  58  53 CALM      30.08F
ALMA           PTSUNNY   72  53  51 SW5       30.09S
ANN ARBOR      PTSUNNY   79  60  52 CALM      30.08R
BAD AXE        MOSUNNY   75  67  74 E7        30.10R
DETROIT CITY   SUNNY     81  58  45 SW6       30.07S
DETROIT        PTSUNNY   79  60  52 S7        30.08R
FLINT          PTSUNNY   72  61  68 NW10      30.08F
GROSSE ILE     MOSUNNY   75  64  69 CALM      30.06S
HILLSDALE      PTSUNNY   76  60  56 NW3       30.10S
HOWELL         CLOUDY    73  59  60 NW6       30.10R

CITY           SKY/WX    TMP DP  RH WIND       PRES   REMARKS
JACKSON        CLOUDY    75  60  59 W3        30.09R
LAMBERTVILLE   MOSUNNY   75  59  57 W3        30.09R
LANSING        LGT RAIN  64  55  72 N12       30.10S
LAPEER         NOT AVBL
MASON          LGT RAIN  68  60  74 NE9       30.11R
MONROE         MOSUNNY   73  66  78 CALM      30.06S
MT. CLEMENS    MOSUNNY   75  65  72 S5        30.06S
PONTIAC        PTSUNNY   78  57  48 NW8       30.07F
PORT HOPE        N/A     70  64  81 E7        30.09R
PORT HURON     MOSUNNY   77  61  57 CALM      30.09R
TRI CITIES     PTSUNNY   78  62  57 SW12      30.07S
YPSILANTI      PTSUNNY   82  59  45 SW5       30.08R
$$
MIZ043>046-050>051-056>058-064>065-071>073-077>080-020000-
SOUTHWEST LOWER MICHIGAN

CITY           SKY/WX    TMP DP  RH WIND       PRES   REMARKS
BATTLE CREEK   CLOUDY    74  59  59 CALM      30.09S
BENTON HARBOR  MOSUNNY   74  63  68 W9        30.07S
BIG RAPIDS     MOSUNNY   75  60  57 SW3       30.06F
COLDWATER      PTSUNNY   75  60  59 CALM      30.08F
HOLLAND        MOSUNNY   79  59  50 W6        30.07F
GRAND RAPIDS   MOSUNNY   81  58  45 SW12      30.07S
KALAMAZOO      CLOUDY    74  61  63 CALM      30.08F
MARSHALL       CLOUDY    75  62  62 W7        30.09R
MUSKEGON       SUNNY     75  59  57 SW8       30.08R
$$
MIZ016>042-020000-
NORTHERN LOWER MICHIGAN

CITY           SKY/WX    TMP DP  RH WIND       PRES   REMARKS
ALPENA         SUNNY     72  53  51 SE8       30.09R
BEAVER ISLAND  SUNNY     74  57  53 CALM      30.08S
BELLAIRE       MOSUNNY   76  56  49 CALM      30.05S
CADILLAC       PTSUNNY   72  58  61 S8        30.08S
CHARLEVOIX     SUNNY     74  56  52 N3        30.09F
FRANKFORT      CLEAR     71  61  70 W6        30.07S
GAYLORD        MOSUNNY   76  52  43 CALM      30.09S
GRAYLING       MOSUNNY   79  50  36 NE5       30.08S
HARBOR SPRINGS SUNNY     74  59  58 CALM      30.07F
HOUGHTON LAKE  PTSUNNY   74  62  66 S3        30.08S
MANISTEE       SUNNY     73  59  60 W7        30.07S
OSCODA         MOSUNNY   70  59  68 E7        30.09S
PELLSTON       SUNNY     78  50  37 N6        30.07S
TRAVERSE CITY  MOSUNNY   75  55  49 NE8       30.04F
$$
MIZ007>008-015-020000-
EASTERN UPPER MICHIGAN

CITY           SKY/WX    TMP DP  RH WIND       PRES   REMARKS
KINROSS        PTSUNNY   68  52  56 N7        30.10R
MACKINAC ISLAN SUNNY     69  49  48 E6        30.08S
NEWBERRY       SUNNY     71  50  47 N8        30.09R
S. S. MARIE    MOSUNNY   69  51  52 W7        30.09R
$$
MIZ004>006-011>014-085-020000-
CENTRAL UPPER MICHIGAN

CITY           SKY/WX    TMP DP  RH WIND       PRES   REMARKS
MANISTIQUE     SUNNY     72  52  49 CALM      30.07S
ESCANABA       SUNNY     70  57  64 SE9       30.07R
MENOMINEE      PTSUNNY   72  64  78 E7        30.04R
SAWYER-GWINN   MOSUNNY   64  52  63 NE8       30.10R
$$
MIZ001>003-009>011-084-020000-
WESTERN UPPER MICHIGAN

CITY           SKY/WX    TMP DP  RH WIND       PRES   REMARKS
IRON MOUNTAIN  MOSUNNY   79  48  33 W7        30.05S
HOUGHTON       MOSUNNY   64  52  64 SE8       30.09S
COPPER HARBOR    N/A     64  51  62 VRB3      30.09R
$$

ABBREVIATIONS USED IN REMARKS
   TC - TEMPERATURE IN CELSIUS
  WCI - WIND CHILL INDEX
   HX - HEAT INDEX
  VSB - VISIBILITY



USA.gov is the U.S. government's official web portal to all federal, state and local government web resources and services.